Regional Weather Roundup
Issued by NWS Albany, NY

Home | Current Version | Previous Version | Text Only | Print | Product List | Glossary On
Versions: 1 2 3 4 5 6 7 8 9 10 11 12 13 14 15 16 17 18 19 20 21 22 23 24 25 26 27 28
000
ASUS41 KALY 221310
RWRALY

NEW YORK STATE HOURLY WEATHER ROUNDUP
NATIONAL WEATHER SERVICE ALBANY NY
900 AM EDT SAT APR 22 2017

NOTE: "FAIR" INDICATES FEW OR NO CLOUDS BELOW 12,000 FEET WITH NO
SIGNIFICANT WEATHER AND/OR NO OBSTRUCTIONS TO VISIBILITY.

NYZ032-033-038>043-046>054-057>066-NYZ062>081-082-084-221400-
EAST


CITY           SKY/WX    TMP DP  RH WIND       PRES   REMARKS
ALBANY         CLOUDY    50  41  71 NW12      29.96R
GLENS FALLS    CLOUDY    51  45  79 CALM      29.93S
POUGHKEEPSIE   CLOUDY    51  48  89 CALM      29.93S
NEWBURGH       DRIZZLE   50  50 100 VRB6      29.94F
MONTGOMERY     LGT RAIN  52  49  89 N7        29.92F
WHITE PLAINS   LGT RAIN  51  47  86 N6        29.92R
ISLIP          CLOUDY    49  47  93 N9        29.93R
NEW YORK CITY  CLOUDY    53  48  83 E6        29.93R
CENTRAL PARK   CLOUDY    53  48  83 VRB7      29.95S
$$

NYZ005>009-017-018-044>046-055-056-221400-
CENTRAL


CITY           SKY/WX    TMP DP  RH WIND       PRES   REMARKS
FULTON         CLOUDY    44  38  79 W8        30.01R
SYRACUSE       CLOUDY    44  37  76 W10       30.00S
ROME           CLOUDY    46  40  79 W10       29.99F
ELMIRA         CLOUDY    45  34  65 NW7       30.00R
BINGHAMTON     CLOUDY    41  36  82 NW10      29.96S
MONTICELLO     PTSUNNY   46  45  93 NW7       29.94S
$$

NYZ026>034-041>043-087-221400-
NORTH


CITY           SKY/WX    TMP DP  RH WIND       PRES   REMARKS
WATERTOWN      CLOUDY    43  41  93 SW6       29.98R
FORT DRUM      NOT AVBL
OGDENSBURG     DRIZZLE   44  42  92 W9        29.96S
MASSENA        LGT RAIN  44  42  93 W7        29.95S
SARANAC LAKE   CLOUDY    41  36  82 SW8       29.89F
PLATTSBURGH    CLOUDY    50  38  63 NW5       29.92S
$$

NYZ001>004-010>016-019>021-085-221400-
WEST


CITY           SKY/WX    TMP DP  RH WIND       PRES   REMARKS
NIAGARA FALLS  CLOUDY    44  33  65 NW10      30.05R
BUFFALO        CLOUDY    42  33  70 NW9       30.05R
DUNKIRK        CLOUDY    42  37  82 NW8       30.07R
JAMESTOWN      CLOUDY    37  30  75 W7        30.03R WCI  32
WELLSVILLE     CLOUDY    39  32  76 N9        30.00R WCI  33
ROCHESTER      CLOUDY    43  36  76 NW8       30.04R
PENN YAN       CLOUDY    43  32  65 W7        30.02R
$$

             KEY
       WCI = WIND CHILL INDEX
       VSB = VISIBILITY
       HX  = HEAT INDEX
$$




USA.gov is the U.S. government's official web portal to all federal, state and local government web resources and services.